Regional Weather Roundup
Issued by NWS

Home | Current Version | Previous Version | Text Only | Print | Product List | Glossary On
Versions: 1 2 3 4 5 6 7 8 9 10 11 12 13 14 15 16 17 18 19 20 21 22 23 24 25 26 27 28 29 30 31 32 33 34 35 36 37 38 39 40 41 42 43 44 45 46 47 48 49 50
000
ASUS42 KTBW 021210
RWRFL
FLORIDA REGIONAL WEATHER ROUNDUP
NATIONAL WEATHER SERVICE TAMPA BAY RUSKIN FL
700 AM EST MON MAR 02 2015

NOTE: "FAIR" INDICATES FEW OR NO CLOUDS BELOW 12,000 FEET WITH NO
SIGNIFICANT WEATHER AND/OR OBSTRUCTIONS TO VISIBILITY.


FLZ001>010-012>015-112-114-115-021300-
PANHANDLE FLORIDA

CITY           SKY/WX    TMP DP  RH WIND       PRES   REMARKS
PENSACOLA      CLOUDY    57  55  93 N5        30.28R FOG
PENSACOLA NAS  CLOUDY    60  58  92 NW5       30.28R FOG
MILTON NAS     CLOUDY    56  55  97 N3        30.29R FOG
CRESTVIEW      MOCLDY    56  55  97 CALM      30.30R
DUKE FIELD     CLOUDY    56  55  96 CALM      30.28R
VALPARAISO     MOCLDY    54  53  95 SE3       30.27R FOG
MARY ESTHER    CLOUDY    58  55  90 E3        30.26R
TRI COUNTY     PTSUNNY   51  50  96 CALM      30.30R FOG
PANAMA CITY    CLOUDY    56  53  90 SE3       30.28R
TYNDALL AFB    FOG       56  55  98 E3        30.29R VSB 1/4
APALACHICOLA   FOG       61  58  90 NE3       30.29S VSB 1/4

STATION/POSITION SKY/WX   TEMP    WIND        PRES    WAVE   SWELL
                          AIR SEA DIR/SP/G            HT/PER HT/PER
                          (F)     (DEG/KT/KT) (MB)    (FT/S) (FT/S)
30.1N   87.6W              63 63  150/ 10/ 12 1024.1R   3/ 5   2/ 5
29.2N   88.2W              69 71  130/ 14/ 17 1025.0    3/ 6
28.7N   86.0W              65 67   90/ 12/ 16 1025.4F   2/ 4   2/ 8
PANAMA CITY BEAC           57 57  110/  4/  5 1025.3R
CAPE SAN BLAS    NOT AVBL
TOWER C                    58      60/  5/  5 1025.6R
28.5N   84.5W              64 66   40/  8/ 10 1025.6R   2/ 4

$$
FLZ011-016>038-118-127-128-134-139-239-021300-
NORTH FLORIDA

CITY           SKY/WX    TMP DP  RH WIND       PRES   REMARKS
MARIANNA       FOG       52  52 100 CALM      30.28S VSB 3/4
TALLAHASSEE    FOG       53  51  93 CALM      30.29R VSB 1/2
PERRY          CLOUDY    56  56  98 SE3       30.29S FOG
CROSS CITY       N/A     59  58  96 CALM      30.29F
LAKE CITY      FOG       55  55 100 S3        30.30S VSB<1/4
GAINESVILLE    FOG       58  58 100 NE3       30.30F VSB 1/4
MAYPORT NAS    FOG       53  53 100 CALM      30.31S VSB 1/4
JACKSONVILLE   FOG       54  54 100 S5        30.29F VSB 1/4
JAX NAS        FOG       57  54  89 CALM      30.31F VSB 1/4
JAX CRAIG      FOG       54  53  97 CALM      30.30F VSB 1/4
JAX CECIL      FOG       55  55 100 VRB5      30.31F VSB 1/4
FERNANDINA BEA CLOUDY    57  55  94 CALM      30.29F VSB 1/4
ST AUGUSTINE   FOG       54  54 100 CALM      30.32F VSB 1/4

STATION/POSITION SKY/WX   TEMP    WIND        PRES    WAVE   SWELL
                          AIR SEA DIR/SP/G            HT/PER HT/PER
                          (F)     (DEG/KT/KT) (MB)    (FT/S) (FT/S)
SHELL POINT                55      10/  2/  4   N/A
KEATON BEACH               57      90/  5/  6 1025.8R
CEDAR KEY                  63      60/  7/  8 1026.1R
FERNANDINA                        150/  3/  4   N/A
30.7N   81.3W                 52                N/A     4/10   2/11
MAYPORT                           260/  1/  2   N/A
31.4N   80.9W              51 55   60/  2/  4 1025.8F   4/10   3/10
ST AUGUSTINE               52     360/  7/  7 1027.1F

$$
FLZ040-043>046-052-053-057-058-063-144-021300-
INTERIOR CENTRAL FLORIDA

CITY           SKY/WX    TMP DP  RH WIND       PRES   REMARKS
OCALA          FOG       61  59  94 CALM      30.31S VSB 1/4
THE VILLAGES   FOG       63  63 100 CALM      30.21S VSB 1/4
LEESBURG       FOG       62  62 100 NE5       30.31S VSB 1/2
SANFORD        FOG       60  60 100 NE3       30.31S VSB 1/4
ORLANDO EXEC   FOG       63  63 100 E5        30.30S VSB 1/2
ORLANDO INTL   FOG       64  64 100 N6        30.31R VSB<1/4
KISSIMMEE      FOG       64  64 100 CALM      30.31  VSB 1/2
WINTER HAVEN   FOG       66  65  96 CALM      30.31R VSB 1/4
LAKELAND       FOG       66  66 100 CALM      30.30R VSB 1/2
BARTOW         FOG       64 N/A N/A NE3       30.30S VSB 1/4
OKEECHOBEE     DRZL/FOG  63  63 100 CALM      30.29S VSB 1/2

$$
FLZ041-047-054-059-064-141-147-021300-
EAST CENTRAL FLORIDA

CITY           SKY/WX    TMP DP  RH WIND       PRES   REMARKS
ORMOND BEACH   FOG       55  55 100 CALM      30.32  VSB 1/4
DAYTONA BEACH  FOG       58  57  97 N5        30.32R VSB 3/4
DELAND         CLOUDY   N/A N/A N/A NE5       30.32S VSB<1/4
NEW SMYRNA BEA FOG       57  57 100 CALM      30.36  VSB 1/4
JFK SPACE CTR  FOG       59  58  97 N8        30.30R VSB 1/4
TITUSVILLE     FOG       61  61 100 N6        30.31  VSB 1/4
CAPE CANAVERAL FOG       59  59 100 N6        30.29R VSB 1/2
PATRICK AFB    FOG       63  63 100 N6        30.29S VSB 1/4
MELBOURNE      FOG       64  64 100 N5        30.29R VSB 1/4
VERO BEACH     FOG       65  62  90 N5        30.29R VSB 1/4
FT PIERCE      CLOUDY    66  66 100 N3        30.28S VSB 1
STUART         PTCLDY    66  64  94 CALM      30.29S

STATION/POSITION SKY/WX   TEMP    WIND        PRES    WAVE   SWELL
                          AIR SEA DIR/SP/G            HT/PER HT/PER
                          (F)     (DEG/KT/KT) (MB)    (FT/S) (FT/S)
28.5N   80.2W              66 69  330/ 10/ 12 1025.8R
28.9N   78.5W              73 75  190/  6/  6 1026.0R   6/ 9   5/ 9
TRIDENT PIER                      340/  4/  7   N/A
28.4N   80.5W                 64                N/A     3/ 9   2/11
27.6N   80.2W                 72                N/A     4/ 9   2/11

$$
FLZ050-056-061-142-242-148-248-149-249-151-251-155-255-
160-260-021300-
WEST CENTRAL FLORIDA

CITY           SKY/WX    TMP DP  RH WIND       PRES   REMARKS
CRYSTAL RIVER  CLOUDY    64  63  94 E5        30.30S FOG
INVERNESS      FOG       64  61  88 NE3       30.31S VSB 1/4
BROOKSVILLE    CLOUDY    67  66  97 NE3       30.30S FOG
ZEPHYRHILLS    CLOUDY    63  63 100 CALM      30.31R FOG
CLEARWATER     CLOUDY    67  67 100 E5        30.29R FOG
TAMPA INTL     FOG       69  66  90 E5        30.29R VSB 1
TAMPA EXEC     CLOUDY    70  68  94 CALM      30.30R FOG
PLANT CITY     FOG      N/A N/A N/A CALM      30.31R VSB 1
MACDILL AFB    CLOUDY    68  68 100 E7        30.29R FOG
PETER O KNIGHT CLOUDY    70  70 100 NE3       30.30R FOG
ST PETERSBURG  CLOUDY    68  66  93 NE6       30.27S
SARASOTA       CLOUDY    67  66  97 E5        30.27R
VENICE         CLOUDY    66  66 100 E6        30.29R FOG

STATION/POSITION SKY/WX   TEMP    WIND        PRES    WAVE   SWELL
                          AIR SEA DIR/SP/G            HT/PER HT/PER
                          (F)     (DEG/KT/KT) (MB)    (FT/S) (FT/S)
CEDAR KEY                  63      60/  7/  8 1026.1R
28.5N   84.5W              64 66   40/  8/ 10 1025.6R   2/ 4
27.3N   84.3W                 69                N/A     2/ 4
CLEARWATER BEACH           68 63  100/  6/  8 1025.3R
MIDDLE TAMPA BAY                   90/  5/  5   N/A
VENICE                     66 64   80/  6/  7 1024.8R

$$
FLZ066-069-070-075>078-162-262-165-265-021300-
SOUTHWEST FLORIDA AND KEYS

CITY           SKY/WX    TMP DP  RH WIND       PRES   REMARKS
PUNTA GORDA    FOG       64  64 100 NE6       30.30R VSB 1/4
FT MYERS       FOG       66  66 100 E5        30.26S VSB 1/4
SOUTHWEST INTL FOG       65  64  97 NE3       30.27R VSB 1/4
NAPLES         FOG       66  66 100 NE5       30.26S VSB 1/4
MARCO ISLAND   CLOUDY    64  63  94 NE6       30.26R VSB 3/4
IMMOKALEE      CLOUDY   N/A N/A N/A CALM      30.28R VSB 1/4
MARATHON       PTCLDY    74  70  87 E7        30.23R
KEY WEST INTL  LGT RAIN  74  70  87 E7        30.23R

STATION/POSITION SKY/WX   TEMP    WIND        PRES    WAVE   SWELL
                          AIR SEA DIR/SP/G            HT/PER HT/PER
                          (F)     (DEG/KT/KT) (MB)    (FT/S) (FT/S)
VENICE                     66 64   80/  6/  7 1024.8R
NAPLES                             60/  3/  5   N/A
26.0N   85.6W              75 77   80/ 12/ 14 1023.9R   3/ 5   2/ 7
DRY TORTUGAS               71      60/ 13/ 14 1022.9R
SAND KEY                   74      70/ 12/ 15 1023.5R
SOMBRERO KEY               74      70/ 14/ 15 1024.1R
LONG KEY                   75 77  100/ 13/ 15 1023.8R
MOLASSES REEF              75 76   90/ 13/ 13 1023.8R

$$
FLZ067-068-071>074-168-172>174-021300-
SOUTHEAST FLORIDA

CITY           SKY/WX    TMP DP  RH WIND       PRES   REMARKS
W PALM BEACH   PTCLDY    73  68  84 E6        30.26R
FT LAUDER-EXEC PTCLDY    71  66  84 E5        30.26R
FT LAUDERDALE  PTCLDY    72  68  87 E10       30.26R
POMPANO BEACH  CLEAR     73  64  73 E6        30.26R
PEMBROKE PINES CLEAR     70  65  84 E5        30.27R
OPA LOCKA      PTCLDY    69  66  90 E5        30.27R
MIAMI          MOCLDY    72  67  84 E7        30.26R
WEST KENDALL   CLOUDY    66  66 100 CALM      30.26R
HOMESTEAD      CLEAR     71  66  83 E5        30.25R

STATION/POSITION SKY/WX   TEMP    WIND        PRES    WAVE   SWELL
                          AIR SEA DIR/SP/G            HT/PER HT/PER
                          (F)     (DEG/KT/KT) (MB)    (FT/S) (FT/S)
PORT EVERGLADES            75      90/  6/  9 1024.6
VIRGINIA KEY               75 75   90/ 11/ 14 1024.0R
LAKE WORTH                 74 74   90/ 10/ 12 1024.5R


USA.gov is the U.S. government's official web portal to all federal, state and local government web resources and services.